Погода в Алуште

Россия / Республика Крым     44°40′35″N   34°24′36″E
темп.,
°C
ветер,
м/с
пор.,
м/с
влажн.,
%
обл.,
%
осадки,
мм/ч
давл.,
гПа
погр.,
м
13 апреля, вт
вт1300:00+7св119479 0.0 1022127
03:00+6вюв018999 0.1 102256
06:00+6ссв008896 0.0 102211
09:00+7ю2285100 0.0 1022239
12:00+8ю338329 0.0 1022310
15:00+8ю338546 0.0 1022308
18:00+8ю338843 0.1 1021188
21:00+7ююв229237 0.1 1021111
14 апреля, ср
ср1400:00+6ю118744 0.0 1020112
03:00+5ю018616 0.0 102096
06:00+5ююз01797 0.0 101874
09:00+6вюв237810 0.0 1019302
12:00+7юв1375100 0.0 1018311
15:00+7юв1374100 0.0 1017263
18:00+6всв1285100 0.4 1016182
21:00+6всв129017 0.4 101794
15 апреля, чт
чт1500:00+6всв128914 0.0 101682
03:00+7всв128691 0.0 101469
06:00+7св1189100 0.8 101461
09:00+7ю229359 1.0 1015188
12:00+8ю458845 0.1 1015404
15:00+10з24642 0.1 1015533
18:00+10зсз3459100 0.0 1015226
21:00+7ссз3371100 0.0 101644
16 апреля, пт
пт1600:00+7ссз127339 0.0 101658
03:00+5зсз227251 0.0 101664
06:00+5ссз226970 0.0 101660
09:00+7юв12692 0.0 1017444
12:00+8ю567356 0.0 1017637
15:00+8ю458081 0.3 1017340
18:00+8ююз457259 0.1 1017347
21:00+6сз34782 0.1 1018114
17 апреля, сб
сб1700:00+5зсз33670 0.0 101997
03:00+5зсз33662 0.0 102075
06:00+5зсз11695 0.0 102065
09:00+7юв116228 0.0 1020372
12:00+8ю226739 0.0 1021626
15:00+9ююв1268100 0.0 1020446
18:00+7ю1278100 0.0 1021154
21:00+7юз1180100 0.0 102261